Satellite-Ground Cal/Val Region Overpasses Predictions

Prediction of Satellite NPP Overpassing Cal/Val Region: PacNW

Region Location: (Latitude: 10.00, Longitude: 139.50) to (Latitude: 22.70, Longitude: 165.60).

Table of predicted overpasses for the next 14.0 days since TLE Epoch: 7/5/2012
Interval Starting Time Starting Location Ending Time Ending Location
1 07/06/2012 03:09:06 ( 10.02, 152.02) 07/06/2012 03:12:42 ( 22.70, 149.01)
2 07/06/2012 15:41:00 ( 22.67, 149.24) 07/06/2012 15:44:35 ( 10.05, 146.24)
3 07/07/2012 02:50:04 ( 10.03, 156.77) 07/07/2012 02:53:39 ( 22.65, 153.78)
4 07/07/2012 15:21:58 ( 22.66, 153.99) 07/07/2012 15:25:33 ( 10.04, 151.00)
5 07/08/2012 02:31:03 ( 10.04, 161.53) 07/08/2012 02:34:38 ( 22.66, 158.53)
6 07/08/2012 15:02:57 ( 22.65, 158.75) 07/08/2012 15:06:32 ( 10.03, 155.75)
7 07/09/2012 02:12:52 ( 13.04, 165.59) 07/09/2012 02:15:36 ( 22.67, 163.28)
8 07/09/2012 03:53:31 ( 10.05, 140.90) 07/09/2012 03:55:14 ( 16.10, 139.50)
9 07/09/2012 14:43:54 ( 22.70, 163.51) 07/09/2012 14:47:30 ( 10.02, 160.50)
10 07/10/2012 03:34:29 ( 10.00, 145.67) 07/10/2012 03:38:05 ( 22.68, 142.66)
11 07/10/2012 14:28:04 ( 11.48, 165.59) 07/10/2012 14:28:29 ( 10.01, 165.25)
12 07/10/2012 16:06:23 ( 22.68, 142.89) 07/10/2012 16:09:59 ( 10.00, 139.88)
13 07/11/2012 03:15:27 ( 10.01, 150.42) 07/11/2012 03:19:03 ( 22.69, 147.41)
14 07/11/2012 15:47:21 ( 22.67, 147.64) 07/11/2012 15:50:56 ( 10.05, 144.65)
15 07/12/2012 02:56:26 ( 10.02, 155.18) 07/12/2012 03:00:01 ( 22.65, 152.18)
16 07/12/2012 15:28:20 ( 22.66, 152.40) 07/12/2012 15:31:55 ( 10.04, 149.40)
17 07/13/2012 02:37:25 ( 10.04, 159.93) 07/13/2012 02:41:00 ( 22.66, 156.93)
18 07/13/2012 15:09:18 ( 22.65, 157.15) 07/13/2012 15:12:53 ( 10.03, 154.15)
19 07/14/2012 02:18:23 ( 10.05, 164.68) 07/14/2012 02:21:58 ( 22.67, 161.68)
20 07/14/2012 14:50:16 ( 22.70, 161.92) 07/14/2012 14:53:52 ( 10.02, 158.90)
21 07/15/2012 03:40:51 ( 10.01, 144.07) 07/15/2012 03:44:27 ( 22.69, 141.06)
22 07/15/2012 14:32:29 ( 18.29, 165.59) 07/15/2012 14:34:50 ( 10.01, 163.66)
23 07/15/2012 16:12:44 ( 22.68, 141.29) 07/15/2012 16:14:50 ( 15.29, 139.50)
24 07/16/2012 03:21:49 ( 10.02, 148.82) 07/16/2012 03:25:24 ( 22.64, 145.83)
25 07/16/2012 15:53:43 ( 22.67, 146.05) 07/16/2012 15:57:18 ( 10.05, 143.05)
26 07/17/2012 03:02:48 ( 10.03, 153.58) 07/17/2012 03:06:23 ( 22.66, 150.58)
27 07/17/2012 15:34:41 ( 22.65, 150.80) 07/17/2012 15:38:16 ( 10.03, 147.80)
28 07/18/2012 02:43:46 ( 10.05, 158.33) 07/18/2012 02:47:21 ( 22.67, 155.33)
29 07/18/2012 15:15:39 ( 22.70, 155.56) 07/18/2012 15:19:15 ( 10.02, 152.55)
30 07/19/2012 02:24:44 ( 10.01, 163.10) 07/19/2012 02:28:20 ( 22.69, 160.08)


NCC Satellite Cal/Val Overpasses Prediction Service
